Temperature
21 21 21 21 17 14 12 12 13 12 10 9 9 8 7 7 8 7 7 7 8 9 9 10 11 11 11 11 12 12 12 13 13 13 13 13 13 13 13 13 13 13 13 14 14 14 15 15 16
22 22 22 19 14 12 12 12 12 12 9 9 8 8 7 8 8 8 7 7 8 9 9 10 10 10 10 11 11 11 12 12 12 12 12 12 12 12 12 13 13 13 13 13 13 13 14 14 15
22 22 19 13 11 11 12 12 11 11 10 9 8 8 8 8 8 7 7 8 9 9 9 10 10 10 10 10 10 11 11 11 11 12 12 12 12 12 12 12 12 12 12 12 12 13 13 14 14
22 21 16 12 10 10 10 10 11 12 10 9 8 8 8 8 7 6 7 8 9 9 9 9 9 9 10 10 10 10 10 10 10 11 11 11 11 12 11 12 12 12 12 12 12 12 12 13 13
22 18 12 10 10 10 9 10 10 10 9 8 8 8 7 7 7 7 7 8 8 8 9 9 9 9 9 9 9 9 9 9 9 9 9 10 10 11 11 11 11 11 11 11 11 11 12 12 13
21 15 12 10 10 10 10 10 9 9 9 9 8 7 6 6 6 7 7 8 8 8 8 9 9 9 9 9 9 9 9 8 8 8 8 8 8 9 9 10 10 10 11 11 11 11 11 12 12
19 12 11 10 11 11 10 10 9 8 8 8 9 7 6 6 6 7 7 8 8 8 8 8 8 8 8 7 7 7 6 6 6 6 5 6 6 7 7 7 8 8 9 9 10 10 11 11 11
20 13 12 12 11 10 10 9 8 8 8 8 8 7 5 5 6 7 7 7 7 7 7 7 6 6 6 6 5 5 5 4 4 4 4 4 5 5 5 5 6 6 7 7 8 9 10 11 11
19 11 11 12 11 10 10 9 8 7 7 6 6 6 5 6 7 8 8 8 7 6 6 5 5 4 4 4 4 3 3 3 3 2 2 3 3 4 4 4 4 4 5 6 6 7 8 10 10
15 10 11 11 11 10 10 9 8 7 6 6 5 5 6 7 7 7 7 6 6 5 4 4 3 3 2 2 2 2 2 2 1 0 0 1 1 2 2 3 3 3 4 4 5 6 7 8 9
12 10 10 10 11 10 9 8 8 7 5 6 5 5 6 6 6 6 5 5 4 3 3 2 2 2 2 2 1 1 1 1 0 -1 -1 -1 -0 0 1 2 2 2 3 3 4 4 5 6 7
11 11 11 11 11 10 8 8 7 7 6 6 6 6 6 6 5 5 5 4 3 2 2 2 2 2 2 1 1 1 0 0 -1 -2 -2 -2 -2 -1 -1 -0 -0 -0 0 1 2 2 3 4 5
9 9 10 11 11 9 8 7 7 6 6 6 6 6 5 5 5 5 4 3 3 2 2 2 2 1 1 1 1 0 0 -0 -1 -2 -3 -3 -3 -3 -2 -2 -2 -2 -2 -1 -0 0 1 2 3
10 9 9 10 9 8 7 7 7 6 6 6 6 5 5 5 5 4 4 3 3 2 2 1 1 1 1 1 0 -0 -0 -1 -1 -2 -3 -4 -4 -4 -4 -4 -4 -4 -3 -3 -3 -2 -2 0 1
11 9 9 9 9 8 8 6 7 7 6 6 5 5 5 4 4 4 3 3 2 2 1 1 0 0 0 0 -0 -1 -1 -2 -2 -3 -3 -4 -4 -5 -5 -5 -5 -5 -5 -5 -4 -4 -3 -2 -1
11 9 10 9 9 9 8 6 7 7 7 6 5 5 4 4 3 3 3 3 2 2 1 0 -0 -0 -0 -0 -1 -1 -2 -2 -3 -3 -4 -4 -5 -5 -5 -6 -6 -6 -6 -6 -6 -6 -5 -4 -3
12 11 11 10 9 9 8 6 7 7 7 6 5 5 4 3 3 3 3 3 2 1 0 -0 -0 -0 -1 -1 -1 -1 -2 -3 -3 -4 -4 -5 -5 -5 -6 -7 -7 -7 -7 -6 -7 -7 -7 -6 -6
14 13 11 10 10 9 7 5 6 7 7 6 5 5 4 3 3 2 2 2 2 1 -0 -1 -1 -1 -1 -1 -1 -1 -2 -3 -4 -5 -5 -6 -6 -6 -7 -7 -8 -8 -7 -7 -7 -7 -7 -7 -7
15 13 11 10 11 10 7 5 5 7 6 6 5 5 4 3 3 2 2 2 1 0 -1 -2 -2 -2 -2 -2 -2 -3 -3 -4 -5 -5 -6 -6 -7 -7 -7 -8 -8 -8 -8 -8 -8 -8 -8 -8 -7
14 13 11 10 11 10 6 5 5 6 6 6 6 5 4 3 3 2 2 2 0 -1 -2 -2 -2 -2 -3 -3 -4 -5 -5 -5 -6 -6 -7 -7 -8 -8 -9 -9 -9 -9 -9 -9 -9 -9 -9 -9 -8
12 14 12 11 10 9 8 7 5 5 6 6 5 5 4 3 3 2 2 0 -1 -2 -2 -2 -3 -3 -4 -4 -5 -5 -5 -6 -6 -7 -7 -8 -8 -9 -9 -10 -10 -10 -10 -10 -10 -10 -10 -10 -9
14 13 13 11 9 8 9 8 5 4 4 5 4 4 3 3 3 2 1 -0 -2 -2 -3 -3 -3 -4 -5 -5 -6 -6 -7 -7 -8 -9 -9 -9 -9 -9 -10 -10 -11 -11 -11 -11 -11 -11 -11 -10 -10
13 13 12 12 10 9 8 7 6 4 4 3 4 3 3 3 2 1 0 -1 -2 -2 -3 -4 -4 -5 -5 -6 -7 -7 -8 -9 -9 -9 -9 -9 -9 -10 -10 -11 -11 -11 -11 -11 -11 -11 -11 -11 -10
12 12 11 9 9 10 9 6 7 3 4 3 3 3 2 2 2 1 0 -1 -2 -3 -4 -4 -5 -5 -6 -7 -7 -8 -9 -9 -10 -10 -10 -11 -11 -11 -11 -12 -12 -12 -12 -12 -11 -11 -11 -10 -10
11 11 11 12 10 11 10 8 7 4 3 4 3 3 2 2 1 1 -0 -2 -3 -4 -4 -5 -5 -6 -7 -7 -8 -9 -9 -10 -10 -11 -11 -12 -12 -12 -12 -13 -13 -13 -12 -12 -12 -12 -11 -10 -10
11 12 12 12 10 9 10 9 5 4 5 5 4 3 2 2 1 0 -1 -3 -4 -4 -5 -5 -6 -6 -7 -8 -8 -9 -10 -10 -11 -11 -12 -12 -12 -13 -13 -13 -13 -13 -13 -12 -12 -12 -11 -11 -10
12 10 10 9 9 8 9 7 4 4 3 3 2 2 2 1 0 -1 -2 -3 -4 -5 -5 -5 -6 -7 -7 -8 -9 -10 -11 -11 -11 -12 -12 -13 -13 -13 -13 -13 -13 -13 -13 -13 -13 -12 -11 -10 -10
12 10 8 9 10 9 8 8 7 3 3 3 2 2 1 0 -0 -2 -3 -4 -5 -5 -5 -6 -6 -7 -8 -9 -10 -11 -11 -11 -12 -12 -13 -13 -13 -13 -14 -14 -14 -13 -13 -13 -13 -12 -11 -10 -10
12 11 10 8 8 8 7 8 7 4 3 2 2 2 1 0 -1 -3 -4 -4 -4 -5 -5 -6 -7 -8 -9 -10 -10 -11 -11 -12 -12 -13 -13 -13 -13 -14 -14 -14 -14 -13 -13 -13 -12 -12 -11 -10 -9
11 11 9 9 9 7 6 8 5 3 4 3 2 1 0 -0 -2 -3 -4 -4 -4 -5 -5 -6 -7 -8 -9 -10 -11 -11 -11 -12 -12 -13 -13 -13 -13 -14 -14 -14 -13 -13 -13 -13 -12 -11 -10 -10 -9
Wind_Speed
14 9 4 5 9 11 8 7 4 6 6 5 9 11 10 8 8 9 3 12 17 21 26 29 32 32 32 32 32 32 32 32 32 32 32 31 31 31 31 31 31 30 28 25 21 17 16 16 16
7 5 7 7 8 8 6 6 9 6 10 9 8 8 8 8 4 5 6 12 20 24 27 28 31 32 32 32 32 32 32 32 32 32 32 31 31 30 30 30 30 30 30 30 28 24 19 17 16
3 7 7 7 7 6 5 3 10 14 11 5 6 6 6 5 4 5 8 16 23 26 27 28 31 32 32 32 33 32 32 32 32 32 32 31 31 31 30 31 30 30 30 30 29 28 25 21 18
5 8 8 10 13 7 5 5 3 5 9 9 6 7 6 6 5 7 12 21 22 24 27 28 31 32 31 31 32 32 32 32 32 32 31 32 32 31 31 31 31 30 30 29 29 29 29 27 23
6 7 10 8 7 5 6 11 11 9 6 7 7 8 6 9 10 10 16 21 19 21 26 28 31 32 31 31 32 31 31 32 31 31 31 32 32 32 32 32 31 31 30 30 29 29 29 29 28
6 7 8 6 6 4 4 7 5 9 6 5 7 8 7 8 11 10 16 18 20 21 25 28 31 32 32 31 32 31 31 31 31 31 31 31 32 32 32 33 32 31 30 30 29 30 30 29 28
6 6 7 8 6 4 3 4 6 6 7 6 4 7 6 9 8 8 14 18 20 23 26 27 29 30 30 29 30 31 30 31 30 30 30 30 31 31 31 33 32 32 31 30 30 30 30 30 28
6 7 7 6 6 4 2 4 5 7 6 5 5 7 6 4 6 8 11 12 16 20 23 26 28 29 28 26 28 30 29 30 30 29 30 29 29 29 30 31 32 32 31 31 30 30 30 30 28
6 7 5 4 8 7 6 5 5 7 10 10 9 9 7 5 8 10 10 11 12 16 20 25 27 29 28 25 25 27 27 29 28 27 28 26 25 26 27 30 30 31 31 31 31 31 29 29 26
8 6 3 1 7 9 7 7 7 6 9 9 9 8 8 9 10 11 11 11 12 13 14 22 24 26 26 23 22 23 23 25 26 25 24 23 23 25 26 28 29 29 29 30 30 30 27 25 22
7 7 5 8 9 9 7 5 5 8 6 5 9 7 7 9 9 9 8 7 8 8 11 16 19 23 23 22 21 21 22 23 24 24 24 23 22 23 24 23 24 24 25 25 26 25 23 22 21
8 8 6 5 6 6 6 6 6 4 7 9 10 9 8 8 7 7 7 7 7 8 8 12 17 22 23 22 21 20 21 21 22 23 24 23 20 21 22 21 22 21 21 22 22 20 22 22 22
8 6 6 10 15 11 11 8 8 7 10 10 10 10 9 8 6 6 7 7 6 7 8 11 18 23 23 21 22 21 22 22 23 22 23 24 20 19 21 20 20 20 21 21 19 20 20 19 20
8 10 10 10 10 5 10 7 6 8 9 10 10 9 8 7 6 6 6 6 7 8 9 12 16 22 22 21 21 20 22 23 22 22 23 25 22 20 20 19 18 19 22 21 20 20 16 15 16
9 9 6 4 5 6 8 5 3 9 9 9 9 8 7 6 7 7 6 5 6 6 7 10 16 20 19 18 20 20 21 22 21 21 23 24 23 22 21 17 15 19 22 21 20 18 15 13 13
6 6 4 5 7 7 6 5 6 8 10 9 8 8 7 5 6 6 6 6 6 6 7 10 16 16 16 17 18 18 19 20 20 21 22 24 23 23 21 15 14 20 20 18 14 10 13 12 12
3 2 3 5 8 7 6 6 8 7 9 9 8 8 7 6 6 5 5 6 5 6 7 8 11 13 14 15 16 16 16 17 19 20 21 23 23 24 21 15 16 20 17 14 13 12 13 14 14
3 5 4 6 6 7 5 6 7 6 7 8 8 7 6 7 6 5 4 4 4 6 6 7 10 12 14 14 14 13 13 15 17 18 20 22 23 23 21 16 18 18 12 10 10 13 12 12 14
2 5 5 5 3 4 6 7 9 6 7 8 7 6 7 7 5 4 2 3 6 7 7 7 8 9 11 8 10 10 10 9 13 18 20 21 23 23 20 17 16 16 9 11 12 13 13 12 12
5 5 3 3 1 2 4 6 6 5 7 8 7 7 7 6 5 2 3 5 5 5 6 7 8 7 10 9 8 7 7 7 13 16 17 20 22 21 19 18 15 14 9 10 11 12 10 11 11
4 2 3 4 1 1 2 2 5 4 4 4 5 6 6 7 5 2 3 3 2 4 6 8 7 7 10 12 11 11 5 5 6 6 9 19 21 20 19 20 17 15 10 10 11 10 11 12 12
1 4 2 5 3 3 4 5 5 7 5 5 5 5 5 5 4 2 1 0 2 4 5 6 7 6 9 12 9 10 10 9 9 7 8 17 20 19 19 21 18 15 12 10 11 11 11 11 12
5 3 3 3 3 2 2 3 5 6 7 7 7 6 6 6 4 2 1 1 2 4 5 6 7 6 8 10 8 9 9 8 9 9 10 9 15 17 19 20 17 15 12 10 10 11 11 10 11
3 3 2 4 3 3 5 6 6 6 8 7 7 7 7 6 4 2 0 2 4 5 6 6 7 7 7 8 7 9 10 11 13 13 11 10 8 12 18 20 17 17 14 11 11 10 12 11 12
8 6 5 6 4 6 2 5 6 4 6 8 9 8 7 6 4 0 3 5 6 7 7 7 7 7 8 8 8 9 9 10 11 12 12 13 11 10 11 18 15 14 15 16 15 11 12 12 13
4 4 3 3 5 7 5 5 4 5 5 6 7 8 7 5 2 2 3 5 6 7 7 7 8 8 8 9 9 8 8 8 9 11 12 12 12 11 15 18 18 17 18 18 14 11 12 12 13
2 2 5 5 3 5 7 6 4 4 5 6 7 7 6 4 2 2 4 5 6 7 7 7 8 8 9 9 9 8 8 9 10 10 9 9 12 16 19 20 17 17 17 15 12 11 13 13 13
2 6 5 2 2 6 8 7 5 10 12 8 8 7 6 4 1 3 4 5 5 5 6 7 7 8 9 9 9 13 9 10 11 10 12 12 14 17 17 15 15 14 14 14 12 12 13 14 14
2 2 3 3 4 3 6 8 4 10 11 9 8 8 7 5 2 1 3 4 5 6 7 7 8 9 9 10 10 11 11 11 12 10 11 12 13 16 14 14 15 16 15 13 13 14 15 15 14
3 4 6 2 4 4 4 8 2 7 8 9 9 8 7 5 2 1 3 4 6 7 8 8 9 9 10 10 10 11 12 11 12 12 12 15 13 16 16 15 16 17 16 15 15 16 15 14 15
Wind_Direction
332 351 57 56 62 63 58 15 47 115 69 58 66 78 85 67 80 107 301 350 10 15 10 8 12 12 13 15 16 17 18 18 19 18 17 16 15 14 13 10 7 4 359 354 344 333 324 317 312
342 32 50 55 69 71 57 12 54 84 138 132 78 73 76 75 62 74 12 15 29 24 14 10 15 13 13 15 15 15 16 15 15 15 14 14 12 11 10 9 6 3 0 357 352 344 332 320 312
53 56 61 60 63 78 86 32 88 76 82 92 86 60 63 57 41 51 26 35 36 27 16 11 17 15 14 15 15 14 15 13 13 12 11 11 10 8 8 6 3 1 359 357 354 351 344 334 320
76 52 61 68 74 43 41 332 273 103 67 45 97 64 59 29 52 57 46 45 37 28 19 14 17 15 15 15 15 13 14 12 11 10 10 10 8 6 6 4 1 359 357 355 354 353 350 345 335
63 68 72 66 71 67 36 24 46 59 67 39 79 89 57 21 56 56 51 45 37 27 22 18 17 16 14 15 15 13 13 12 10 10 10 9 7 5 4 2 358 357 355 353 352 351 349 346 343
63 67 81 90 106 114 54 27 53 55 82 82 87 100 63 26 55 49 49 44 39 30 24 21 17 15 13 13 13 12 12 11 10 9 9 9 7 4 2 359 356 355 353 353 351 350 347 345 342
89 78 90 112 116 94 107 74 42 49 50 30 74 91 89 36 48 52 49 42 38 33 27 21 18 14 11 10 12 11 11 9 9 8 8 8 6 3 1 357 354 354 353 353 351 349 345 343 340
98 94 91 104 123 140 109 75 67 48 44 22 59 95 90 56 51 49 46 40 36 33 27 21 18 13 7 6 10 10 9 8 7 7 7 9 6 3 1 356 353 353 353 353 350 348 346 344 340
67 75 92 136 152 150 138 100 65 48 69 61 62 86 111 95 58 48 40 34 30 27 24 20 17 11 5 4 6 8 7 5 4 4 7 8 6 1 360 353 352 352 351 351 348 347 347 345 340
54 90 91 1 138 128 113 100 115 89 72 75 78 82 86 69 58 50 39 28 24 21 18 19 18 9 4 2 360 8 5 2 359 0 5 7 5 1 358 352 351 351 350 349 346 346 347 346 340
61 95 91 65 85 97 97 79 88 119 86 119 123 115 92 76 66 62 52 41 31 22 15 12 18 10 6 4 1 8 4 1 358 0 5 7 4 1 356 351 348 347 350 347 343 343 343 342 338
80 59 81 100 79 78 91 99 83 97 141 149 139 131 112 95 84 79 65 48 34 23 7 7 22 14 8 8 2 5 3 1 359 360 6 7 5 2 356 350 344 346 347 343 341 337 336 338 334
79 87 59 82 77 81 90 92 106 126 147 140 126 119 121 118 106 89 78 61 41 26 12 12 23 16 9 9 4 3 1 359 355 358 4 6 3 0 354 347 344 345 344 340 337 334 334 335 332
104 101 104 95 94 100 110 116 116 166 157 135 127 130 133 126 118 96 75 57 40 30 16 10 21 15 9 9 3 1 359 355 354 356 360 2 0 358 353 345 344 346 342 336 334 327 330 329 328
98 93 96 129 119 143 122 77 161 173 154 141 141 146 143 131 110 103 97 75 51 35 19 15 16 12 7 6 2 359 356 355 353 354 357 358 358 355 350 342 345 346 342 338 334 327 328 326 325
99 105 124 192 163 179 131 162 211 179 150 153 155 156 150 129 108 113 104 88 60 38 28 20 12 7 3 1 357 354 353 354 352 354 356 355 355 353 347 339 344 344 342 340 334 334 331 325 322
123 140 179 199 198 180 169 187 218 188 154 156 165 170 157 127 111 113 94 88 66 44 32 17 4 359 355 353 352 349 351 352 351 353 354 353 353 350 344 338 343 344 341 337 336 336 330 325 323
217 199 186 208 204 168 164 189 202 192 149 155 168 170 155 128 131 130 98 95 65 39 27 12 356 352 351 352 352 351 351 351 350 350 351 352 350 347 343 344 343 343 339 335 333 332 328 325 322
208 135 173 218 205 166 179 184 201 184 138 158 170 157 143 129 132 140 116 76 46 29 12 2 352 347 354 355 355 350 347 342 344 346 347 348 348 346 343 347 341 341 336 330 330 331 328 329 327
87 112 165 237 236 148 169 209 208 187 174 178 167 153 146 134 140 148 67 49 34 9 349 355 354 349 354 351 342 336 326 322 332 333 338 344 344 342 345 342 336 335 332 326 329 327 329 327 329
48 106 209 213 195 71 148 245 189 204 184 172 132 140 146 143 142 85 47 44 1 345 346 3 351 346 349 348 345 342 324 315 329 328 335 339 337 336 338 335 331 331 330 326 326 324 328 324 321
241 223 196 141 141 269 184 289 206 196 199 178 152 148 140 135 134 92 44 204 328 333 344 352 344 339 345 349 347 346 345 336 331 327 323 328 330 330 334 332 329 329 327 323 323 329 318 317 317
257 228 206 166 186 288 229 237 277 170 207 202 188 173 156 158 151 145 193 186 353 346 345 340 336 333 339 343 338 335 332 324 324 325 323 323 326 328 330 328 328 326 324 319 316 317 315 313 309
298 53 86 60 83 296 219 186 256 202 206 183 183 171 164 170 173 187 110 17 351 344 338 333 333 330 332 335 331 329 326 325 328 330 328 329 324 325 325 326 327 323 321 318 315 313 311 308 304
38 56 21 354 353 272 205 196 254 212 183 170 176 176 176 183 192 211 12 353 340 336 331 329 334 333 335 335 331 326 324 322 324 327 328 328 327 326 319 323 322 320 319 317 315 312 309 306 303
12 92 117 271 271 292 316 252 260 213 195 166 154 158 173 185 174 45 11 350 335 330 330 334 339 339 338 336 330 322 323 326 325 324 325 325 324 321 318 320 316 315 316 317 312 308 306 305 303
65 104 156 156 278 281 284 284 284 221 213 175 154 159 175 170 119 41 7 353 336 332 338 341 343 341 336 332 326 326 323 320 320 319 319 321 321 323 322 318 314 312 312 311 308 305 305 303 299
137 145 95 125 296 292 292 285 248 205 216 199 176 176 176 166 125 36 359 340 331 335 341 344 345 336 328 325 324 338 321 316 317 318 321 320 319 319 317 317 315 312 311 308 305 305 304 302 298
185 191 147 143 183 223 288 277 243 196 190 185 180 176 178 180 157 354 329 328 334 345 349 345 340 335 330 324 318 319 319 317 317 318 318 317 316 317 317 318 316 314 311 308 306 304 302 300 300
235 213 159 185 255 212 245 277 62 158 158 156 161 171 177 166 156 274 330 339 346 351 348 344 337 335 329 323 323 323 321 319 320 320 318 318 316 318 319 318 316 314 313 309 305 303 301 299 299
Height
1542 1541 1541 1542 1552 1574 1596 1601 1596 1600 1603 1606 1603 1604 1611 1617 1621 1632 1631 1624 1620 1616 1613 1608 1604 1600 1596 1592 1589 1586 1582 1579 1575 1572 1569 1566 1563 1561 1558 1555 1553 1551 1549 1547 1545 1543 1541 1540 1538
1542 1542 1543 1546 1567 1593 1606 1605 1602 1601 1604 1606 1607 1611 1614 1619 1624 1627 1627 1624 1621 1617 1613 1608 1605 1601 1597 1593 1589 1586 1582 1578 1575 1572 1568 1565 1562 1559 1556 1554 1551 1549 1546 1544 1542 1540 1539 1537 1536
1543 1543 1547 1561 1587 1603 1607 1607 1605 1604 1605 1606 1610 1614 1618 1624 1627 1629 1628 1624 1621 1617 1613 1609 1605 1601 1597 1593 1589 1585 1581 1578 1574 1571 1567 1564 1561 1557 1554 1551 1549 1546 1544 1542 1539 1537 1535 1534 1532
1545 1547 1559 1579 1600 1608 1610 1608 1604 1602 1604 1607 1610 1618 1624 1628 1630 1629 1627 1624 1620 1617 1613 1609 1605 1601 1597 1593 1588 1584 1580 1576 1572 1569 1565 1562 1558 1555 1552 1549 1546 1543 1541 1538 1536 1534 1531 1529 1528
1547 1553 1575 1597 1606 1611 1610 1607 1603 1603 1607 1612 1611 1621 1628 1631 1630 1628 1626 1623 1620 1616 1613 1609 1605 1601 1596 1592 1587 1583 1579 1574 1570 1566 1562 1558 1555 1551 1548 1546 1543 1540 1537 1534 1532 1530 1528 1526 1524
1551 1562 1588 1606 1610 1610 1610 1609 1606 1608 1611 1614 1616 1621 1632 1633 1629 1628 1626 1623 1620 1616 1612 1608 1604 1600 1595 1591 1586 1581 1576 1572 1567 1563 1558 1554 1551 1547 1544 1541 1538 1535 1532 1529 1527 1525 1523 1521 1520
1556 1573 1595 1605 1609 1610 1611 1611 1611 1613 1613 1616 1618 1623 1632 1631 1630 1628 1626 1623 1619 1616 1612 1607 1602 1598 1593 1588 1583 1579 1574 1569 1564 1560 1555 1551 1547 1544 1540 1537 1533 1530 1527 1524 1521 1519 1517 1516 1514
1559 1574 1594 1602 1607 1611 1611 1613 1615 1615 1617 1619 1620 1624 1630 1632 1630 1628 1625 1622 1619 1614 1610 1605 1600 1595 1590 1586 1581 1576 1572 1567 1562 1557 1553 1548 1545 1541 1537 1533 1529 1525 1522 1518 1516 1513 1511 1510 1508
1564 1583 1599 1600 1604 1608 1611 1614 1618 1621 1620 1620 1623 1626 1630 1630 1629 1627 1624 1621 1617 1612 1608 1603 1598 1593 1588 1583 1579 1574 1570 1565 1560 1555 1550 1546 1542 1537 1533 1529 1525 1521 1517 1514 1511 1508 1505 1503 1502
1570 1593 1600 1600 1601 1606 1611 1615 1619 1623 1622 1625 1627 1628 1629 1629 1627 1624 1622 1618 1614 1610 1606 1601 1596 1590 1585 1580 1575 1571 1566 1562 1558 1552 1547 1543 1539 1535 1530 1526 1521 1516 1513 1510 1507 1503 1499 1497 1495
1583 1597 1601 1604 1604 1608 1612 1616 1619 1622 1625 1626 1627 1628 1628 1627 1625 1623 1621 1618 1614 1610 1605 1599 1593 1589 1583 1578 1574 1569 1564 1560 1555 1550 1545 1540 1536 1531 1527 1522 1517 1512 1508 1504 1501 1498 1494 1491 1489
1591 1600 1603 1607 1609 1611 1614 1617 1620 1622 1624 1626 1626 1626 1627 1626 1624 1622 1620 1617 1613 1609 1603 1598 1593 1588 1583 1578 1572 1567 1562 1557 1552 1548 1542 1537 1532 1527 1523 1518 1514 1509 1504 1500 1496 1493 1489 1486 1484
1595 1603 1606 1609 1610 1613 1615 1618 1620 1624 1625 1625 1625 1625 1625 1624 1623 1622 1619 1616 1612 1607 1603 1598 1592 1586 1581 1575 1570 1566 1560 1556 1551 1546 1541 1535 1530 1525 1520 1515 1511 1506 1502 1497 1492 1488 1484 1481 1478
1599 1604 1609 1612 1613 1617 1618 1621 1621 1624 1624 1625 1625 1625 1624 1624 1623 1620 1618 1614 1611 1607 1602 1597 1591 1585 1580 1574 1569 1564 1559 1554 1549 1544 1539 1534 1529 1523 1518 1513 1508 1503 1499 1494 1489 1485 1480 1476 1472
1603 1608 1613 1615 1615 1618 1619 1622 1621 1622 1623 1624 1624 1624 1624 1623 1621 1620 1617 1614 1610 1606 1601 1595 1589 1584 1579 1573 1568 1563 1558 1553 1548 1543 1537 1532 1527 1521 1516 1511 1506 1501 1496 1491 1486 1481 1476 1471 1467
1605 1610 1614 1615 1615 1616 1620 1624 1621 1621 1622 1623 1624 1624 1623 1622 1621 1619 1617 1613 1609 1605 1600 1594 1588 1583 1577 1572 1567 1562 1557 1551 1546 1540 1535 1530 1524 1519 1514 1509 1503 1498 1493 1488 1482 1478 1473 1468 1463
1605 1609 1610 1613 1612 1613 1616 1620 1619 1620 1621 1622 1623 1623 1623 1622 1620 1618 1615 1612 1608 1603 1598 1592 1586 1581 1575 1570 1565 1560 1555 1549 1543 1538 1532 1526 1521 1516 1511 1506 1500 1495 1490 1485 1480 1475 1471 1465 1459
1600 1604 1608 1610 1608 1611 1614 1617 1617 1619 1620 1621 1623 1623 1622 1621 1619 1617 1614 1611 1607 1602 1596 1590 1585 1579 1573 1568 1563 1557 1552 1546 1541 1535 1529 1523 1517 1512 1507 1502 1497 1492 1487 1482 1477 1472 1467 1463 1458
1594 1599 1606 1606 1605 1608 1613 1617 1616 1617 1619 1621 1621 1621 1621 1619 1618 1615 1612 1609 1605 1600 1594 1588 1582 1576 1570 1564 1558 1552 1547 1542 1537 1532 1526 1520 1514 1509 1504 1498 1493 1488 1483 1479 1474 1469 1464 1459 1455
1594 1602 1606 1606 1605 1608 1613 1616 1616 1617 1618 1618 1619 1619 1618 1617 1616 1614 1611 1608 1603 1597 1591 1585 1580 1574 1569 1563 1557 1551 1545 1539 1534 1529 1523 1517 1511 1505 1500 1495 1489 1484 1479 1474 1470 1466 1461 1456 1454
1600 1599 1601 1605 1607 1608 1612 1614 1618 1617 1617 1618 1617 1617 1617 1616 1615 1612 1609 1605 1600 1595 1589 1584 1579 1573 1567 1561 1555 1549 1542 1536 1530 1524 1518 1514 1508 1502 1497 1491 1485 1480 1475 1470 1466 1462 1458 1453 1450
1599 1597 1598 1603 1608 1611 1610 1615 1615 1615 1616 1616 1616 1615 1615 1614 1613 1610 1607 1603 1598 1593 1588 1583 1577 1571 1565 1558 1552 1545 1538 1532 1526 1520 1515 1510 1505 1499 1493 1487 1481 1476 1471 1466 1462 1458 1455 1450 1446
1597 1596 1597 1599 1604 1608 1611 1614 1610 1614 1615 1614 1613 1613 1613 1612 1611 1608 1605 1601 1596 1592 1586 1581 1575 1569 1563 1557 1550 1544 1537 1531 1524 1518 1511 1505 1500 1494 1489 1483 1477 1472 1467 1462 1457 1453 1450 1446 1443
1596 1598 1600 1604 1609 1610 1604 1615 1602 1612 1608 1609 1610 1611 1611 1611 1609 1606 1603 1599 1595 1590 1584 1579 1573 1567 1561 1554 1548 1542 1535 1528 1520 1513 1507 1500 1494 1489 1484 1478 1473 1467 1462 1457 1452 1448 1444 1441 1438
1599 1604 1610 1607 1610 1605 1598 1605 1600 1605 1603 1604 1607 1609 1609 1609 1607 1604 1601 1597 1593 1587 1582 1576 1570 1564 1558 1552 1546 1539 1532 1525 1518 1511 1503 1496 1489 1483 1478 1473 1468 1463 1457 1452 1447 1443 1439 1436 1433
1603 1604 1614 1616 1618 1610 1598 1598 1603 1603 1603 1604 1605 1607 1607 1606 1605 1602 1599 1595 1590 1585 1579 1573 1567 1562 1556 1549 1543 1537 1530 1523 1516 1509 1501 1494 1486 1480 1474 1469 1464 1458 1453 1448 1442 1438 1434 1431 1428
1603 1609 1608 1617 1617 1617 1605 1600 1603 1603 1603 1604 1604 1605 1605 1604 1603 1600 1597 1593 1588 1582 1577 1571 1565 1559 1553 1547 1540 1533 1527 1520 1513 1505 1498 1491 1484 1477 1471 1465 1459 1454 1448 1443 1438 1433 1429 1426 1423
1602 1606 1615 1614 1617 1618 1608 1600 1596 1600 1599 1601 1602 1602 1602 1602 1601 1598 1595 1591 1586 1580 1575 1569 1563 1557 1552 1545 1538 1532 1525 1517 1510 1503 1495 1488 1481 1474 1467 1461 1455 1449 1443 1438 1433 1428 1425 1421 1418
1602 1604 1607 1615 1617 1620 1617 1599 1588 1590 1592 1596 1599 1599 1600 1600 1599 1596 1593 1588 1584 1578 1573 1567 1561 1555 1549 1543 1536 1529 1522 1515 1508 1501 1493 1486 1479 1472 1465 1458 1451 1444 1438 1433 1428 1424 1420 1417 1414
1601 1600 1606 1613 1612 1616 1618 1599 1589 1588 1590 1593 1596 1597 1597 1598 1596 1593 1590 1586 1581 1576 1571 1565 1559 1553 1547 1540 1533 1527 1519 1512 1506 1499 1492 1485 1478 1471 1463 1456 1448 1440 1434 1428 1423 1419 1416 1414 1411